| time (UTC) | temp F | wind direction | speed knots | gust knots | rain 1hr in | rain 24hr in | rain mn in | humidity % | barometer mb |
| 20260510104601 | 58 | 0 | 0.0 | 0.9 | 0.00 | 0.00 | 0.00 | 66 | 1027.1 |
| 20260510103052 | 58 | 0 | 0.0 | 0.9 | 0.00 | 0.00 | 0.00 | 67 | 1027.0 |
| 20260510101555 | 58 | 0 | 0.0 | 0.9 | 0.00 | 0.00 | 0.00 | 66 | 1026.9 |
| 20260510100100 | 61 | 77 | 0.0 | 1.7 | 0.00 | 0.00 | 0.00 | 60 | 1026.9 |
| 20260510094603 | 63 | 0 | 0.0 | 2.6 | 0.00 | 0.00 | 0.00 | 58 | 1026.7 |
| 20260510093053 | 62 | 124 | 0.0 | 1.7 | 0.00 | 0.00 | 0.00 | 59 | 1026.6 |
| 20260510091550 | 60 | 0 | 0.0 | 0.9 | 0.00 | 0.00 | 0.00 | 66 | 1026.4 |
| 20260510090111 | 60 | 0 | 0.0 | 0.9 | 0.00 | 0.00 | 0.00 | 65 | 1026.4 |
| 20260510084549 | 59 | 74 | 0.0 | 0.9 | 0.00 | 0.00 | 0.00 | 67 | 1026.1 |
| 20260510083048 | 60 | 0 | 0.0 | 1.7 | 0.00 | 0.00 | 0.00 | 66 | 1025.8 |
| 20260510081554 | 60 | 0 | 0.0 | 0.0 | 0.00 | 0.00 | 0.00 | 66 | 1025.6 |
| 20260510080054 | 61 | 0 | 0.0 | 0.9 | 0.00 | 0.00 | 0.00 | 62 | 1025.7 |
| 20260510074605 | 63 | 0 | 0.0 | 0.9 | 0.00 | 0.00 | 0.00 | 57 | 1025.5 |
| 20260510073051 | 65 | 0 | 0.0 | 0.0 | 0.00 | 0.00 | 0.00 | 54 | 1025.3 |
| 20260510071556 | 69 | 0 | 0.0 | 0.0 | 0.00 | 0.00 | 0.00 | 50 | 1025.3 |
| 20260510070109 | 73 | 0 | 0.0 | 0.0 | 0.00 | 0.00 | 0.00 | 46 | 1025.1 |
| 20260510064558 | 78 | 0 | 0.0 | 0.9 | 0.00 | 0.00 | 0.00 | 36 | 1024.9 |
| 20260510063059 | 79 | 0 | 0.0 | 1.7 | 0.00 | 0.00 | 0.00 | 35 | 1024.6 |
| 20260510061555 | 77 | 0 | 0.0 | 3.5 | 0.00 | 0.00 | 0.00 | 36 | 1024.5 |
| 20260510060054 | 83 | 0 | 0.0 | 2.6 | 0.00 | 0.00 | 0.00 | 31 | 1024.3 |
| 20260510054600 | 84 | 0 | 0.0 | 4.3 | 0.00 | 0.00 | 0.00 | 31 | 1024.3 |
| 20260510053052 | 83 | 214 | 0.9 | 5.2 | 0.00 | 0.00 | 0.00 | 30 | 1024.4 |
| 20260510051551 | 84 | 0 | 0.0 | 2.6 | 0.00 | 0.00 | 0.00 | 30 | 1024.4 |
| 20260510050054 | 82 | 0 | 0.0 | 3.5 | 0.00 | 0.00 | 0.00 | 30 | 1024.6 |
| 20260510044602 | 80 | 216 | 1.7 | 3.5 | 0.00 | 0.00 | 0.00 | 34 | 1024.8 |
| 20260510043054 | 79 | 231 | 1.7 | 5.2 | 0.00 | 0.00 | 0.00 | 34 | 1024.9 |
| 20260510041557 | 79 | 200 | 0.0 | 8.7 | 0.00 | 0.00 | 0.00 | 36 | 1025.1 |
| 20260510040053 | 78 | 229 | 1.7 | 7.0 | 0.00 | 0.00 | 0.00 | 35 | 1025.1 |
| 20260510034552 | 77 | 249 | 1.7 | 6.1 | 0.00 | 0.00 | 0.00 | 36 | 1025.3 |
| 20260510033118 | 78 | 245 | 0.9 | 6.1 | 0.00 | 0.00 | 0.00 | 38 | 1025.2 |
| 20260510031614 | 78 | 248 | 0.0 | 4.3 | 0.00 | 0.00 | 0.00 | 37 | 1025.1 |
| 20260510030052 | 77 | 249 | 3.5 | 7.0 | 0.00 | 0.00 | 0.00 | 39 | 1025.2 |
| 20260510024551 | 76 | 285 | 1.7 | 5.2 | 0.00 | 0.00 | 0.00 | 39 | 1025.5 |
| 20260510023053 | 77 | 269 | 1.7 | 6.1 | 0.00 | 0.00 | 0.00 | 38 | 1025.6 |
| 20260510021552 | 76 | 0 | 2.6 | 5.2 | 0.00 | 0.00 | 0.00 | 39 | 1025.7 |
| 20260510020053 | 75 | 0 | 0.0 | 6.1 | 0.00 | 0.00 | 0.00 | 43 | 1025.9 |
| 20260510014605 | 74 | 277 | 2.6 | 10.4 | 0.00 | 0.00 | 0.00 | 41 | 1026.3 |
| 20260510013052 | 74 | 299 | 1.7 | 4.3 | 0.00 | 0.00 | 0.00 | 45 | 1026.5 |
| 20260510011559 | 72 | 0 | 0.0 | 2.6 | 0.00 | 0.00 | 0.00 | 48 | 1026.7 |
| 20260510004558 | 68 | 137 | 1.7 | 4.3 | 0.00 | 0.00 | 0.00 | 53 | 1027.1 |
| 20260510003101 | 67 | 124 | 0.9 | 6.1 | 0.00 | 0.00 | 0.00 | 55 | 1027.4 |
| 20260510001551 | 66 | 0 | 0.9 | 5.2 | 0.00 | 0.00 | 0.00 | 59 | 1027.3 |
| 20260510000055 | 63 | 0 | 0.9 | 3.5 | 0.00 | 0.00 | 0.00 | 60 | 1027.2 |
| 20260509234605 | 62 | 139 | 0.9 | 4.3 | 0.00 | 0.00 | 0.00 | 60 | 1027.2 |
| 20260509233050 | 60 | 123 | 1.7 | 5.2 | 0.00 | 0.00 | 0.00 | 63 | 1027.1 |
| 20260509231552 | 59 | 129 | 1.7 | 5.2 | 0.00 | 0.00 | 0.00 | 65 | 1027.0 |
| 20260509230055 | 58 | 84 | 0.9 | 5.2 | 0.00 | 0.00 | 0.00 | 66 | 1026.9 |
| 20260509224553 | 57 | 122 | 0.0 | 3.5 | 0.00 | 0.00 | 0.00 | 66 | 1027.0 |
| 20260509223058 | 56 | 114 | 0.9 | 3.5 | 0.00 | 0.00 | 0.00 | 68 | 1027.0 |
| 20260509221553 | 55 | 119 | 0.0 | 4.3 | 0.00 | 0.00 | 0.00 | 68 | 1027.0 |
| 20260509214554 | 53 | 0 | 0.0 | 3.5 | 0.00 | 0.00 | 0.00 | 72 | 1026.7 |
| 20260509213055 | 51 | 75 | 0.0 | 1.7 | 0.00 | 0.00 | 0.00 | 75 | 1026.5 |
| 20260509211554 | 50 | 77 | 0.0 | 2.6 | 0.00 | 0.00 | 0.00 | 76 | 1026.4 |
| 20260509210101 | 49 | 0 | 0.0 | 2.6 | 0.00 | 0.00 | 0.00 | 77 | 1026.2 |
| 20260509204559 | 48 | 74 | 0.0 | 3.5 | 0.00 | 0.00 | 0.00 | 78 | 1026.0 |
| 20260509203058 | 48 | 75 | 0.0 | 2.6 | 0.00 | 0.00 | 0.00 | 78 | 1025.7 |
| 20260509201553 | 48 | 74 | 0.0 | 4.3 | 0.00 | 0.00 | 0.00 | 78 | 1025.6 |
| 20260509200054 | 48 | 50 | 0.9 | 4.3 | 0.00 | 0.00 | 0.00 | 77 | 1025.3 |
| 20260509194556 | 49 | 0 | 0.0 | 2.6 | 0.00 | 0.00 | 0.00 | 77 | 1025.1 |
| 20260509193055 | 49 | 84 | 1.7 | 6.1 | 0.00 | 0.00 | 0.00 | 77 | 1024.8 |
| 20260509191554 | 48 | 0 | 0.9 | 4.3 | 0.00 | 0.00 | 0.00 | 77 | 1024.7 |
| 20260509190057 | 49 | 0 | 0.0 | 0.9 | 0.00 | 0.00 | 0.00 | 76 | 1024.5 |
| 20260509184552 | 50 | 49 | 1.7 | 6.1 | 0.00 | 0.00 | 0.00 | 74 | 1024.3 |
| 20260509183057 | 50 | 89 | 2.6 | 7.0 | 0.00 | 0.00 | 0.00 | 74 | 1024.2 |
| 20260509181602 | 50 | 112 | 2.6 | 5.2 | 0.00 | 0.00 | 0.00 | 74 | 1024.0 |
| 20260509180058 | 50 | 117 | 2.6 | 7.0 | 0.00 | 0.00 | 0.00 | 73 | 1023.7 |
| 20260509174601 | 50 | 82 | 1.7 | 7.8 | 0.00 | 0.00 | 0.00 | 73 | 1023.7 |
| 20260509173112 | 51 | 90 | 4.3 | 7.0 | 0.00 | 0.00 | 0.00 | 72 | 1023.6 |
| 20260509171555 | 51 | 108 | 3.5 | 7.8 | 0.00 | 0.00 | 0.00 | 71 | 1023.6 |
| 20260509170054 | 51 | 81 | 3.5 | 8.7 | 0.00 | 0.00 | 0.00 | 71 | 1023.5 |
| 20260509164551 | 52 | 122 | 2.6 | 7.0 | 0.00 | 0.00 | 0.00 | 70 | 1023.6 |
| 20260509163100 | 52 | 92 | 2.6 | 7.8 | 0.00 | 0.00 | 0.00 | 70 | 1023.7 |
| 20260509161552 | 52 | 96 | 3.5 | 8.7 | 0.00 | 0.00 | 0.00 | 70 | 1023.7 |
| 20260509160059 | 52 | 100 | 1.7 | 5.2 | 0.00 | 0.00 | 0.00 | 71 | 1023.8 |
| 20260509154600 | 51 | 88 | 0.9 | 5.2 | 0.00 | 0.00 | 0.00 | 72 | 1023.7 |
| 20260509153054 | 51 | 72 | 0.0 | 5.2 | 0.00 | 0.00 | 0.00 | 73 | 1023.8 |
| 20260509151553 | 52 | 0 | 0.9 | 6.1 | 0.00 | 0.00 | 0.00 | 72 | 1023.8 |
| 20260509150053 | 52 | 87 | 1.7 | 6.1 | 0.00 | 0.00 | 0.00 | 71 | 1023.7 |
| 20260509144606 | 52 | 110 | 1.7 | 7.0 | 0.00 | 0.00 | 0.00 | 72 | 1023.8 |
| 20260509143055 | 52 | 67 | 1.7 | 6.1 | 0.00 | 0.00 | 0.00 | 73 | 1023.8 |
| 20260509141553 | 52 | 113 | 1.7 | 5.2 | 0.00 | 0.00 | 0.00 | 72 | 1023.8 |
| 20260509140105 | 52 | 74 | 0.0 | 4.3 | 0.00 | 0.00 | 0.00 | 72 | 1023.8 |
| 20260509134553 | 52 | 89 | 1.7 | 6.1 | 0.00 | 0.00 | 0.00 | 72 | 1023.9 |
| 20260509133058 | 52 | 59 | 0.9 | 4.3 | 0.00 | 0.00 | 0.00 | 74 | 1024.1 |
| 20260509131557 | 51 | 86 | 0.9 | 5.2 | 0.00 | 0.00 | 0.00 | 76 | 1024.0 |
| 20260509130059 | 48 | 128 | 0.0 | 0.0 | 0.00 | 0.00 | 0.00 | 82 | 1024.1 |
| 20260509124603 | 49 | 0 | 0.0 | 0.0 | 0.00 | 0.00 | 0.00 | 81 | 1023.7 |
| 20260509123052 | 49 | 0 | 0.0 | 0.0 | 0.00 | 0.00 | 0.00 | 81 | 1023.7 |
| 20260509121601 | 49 | 0 | 0.0 | 0.0 | 0.00 | 0.00 | 0.00 | 81 | 1023.8 |
| 20260509120054 | 49 | 0 | 0.0 | 0.0 | 0.00 | 0.00 | 0.00 | 81 | 1023.8 |
| 20260509114553 | 49 | 0 | 0.0 | 0.0 | 0.00 | 0.00 | 0.00 | 81 | 1023.8 |
| 20260509113056 | 50 | 0 | 0.0 | 0.0 | 0.00 | 0.00 | 0.00 | 80 | 1023.8 |
| 20260509111556 | 50 | 0 | 0.0 | 0.0 | 0.00 | 0.00 | 0.00 | 80 | 1023.8 |
| 20260509110050 | 50 | 0 | 0.0 | 0.0 | 0.00 | 0.00 | 0.00 | 80 | 1023.8 |